Regional Weather Roundup
Issued by NWS

Home | Current Version | Previous Version | Text Only | Print | Product List | Glossary On
Versions: 1 2 3 4 5 6 7 8 9 10 11 12 13 14 15 16 17 18 19 20 21 22 23 24 25 26 27 28 29 30 31 32 33 34 35 36 37 38 39 40 41 42 43 44 45 46 47 48 49
000
ASUS42 KFFC 061203
RWRGA
WEATHER ROUNDUP FOR GEORGIA
NATIONAL WEATHER SERVICE PEACHTREE CITY GA
700 AM EST FRI MAR 06 2015

NOTE: "FAIR" INDICATES FEW OR NO CLOUDS BELOW 12,000 FEET WITH NO
SIGNIFICANT WEATHER AND/OR OBSTRUCTIONS TO VISIBILITY.

* = USE WITH CAUTION. THE STATIONS MARKED WITH AN ASTERISK MAY NOT
REPORT WEATHER SUCH AS PRECIPITATION, FOG, OR THUNDER AND ARE NOT
QUALITY CONTROLLED BY NWS.

THE REMARK "TC" DENOTES TEMPERATURE READING IN DEGREES CELSIUS.

GAZ001>058-061300-
NORTH GEORGIA

CITY           SKY/WX    TMP DP  RH WIND       PRES   REMARKS
ATLANTA        CLOUDY    28  23  81 N9        30.37R WCI  19
6HR MIN TEMP:  28; 6HR MAX TEMP:  29;

ATHENS         CLOUDY    36  31  82 E8        30.37R WCI  30
6HR MIN TEMP:  36; 6HR MAX TEMP:  39; 6HR PCP:  0.01;

CHAMBLEE       CLOUDY    28  23  81 NW5       30.38R WCI  23
6HR MIN TEMP:  27; 6HR MAX TEMP:  28;

PEACHTREE CITY CLOUDY    28  24  85 N8        30.38S FOG     WCI  20
6HR MIN TEMP:  28; 6HR MAX TEMP:  30;

ROME           CLOUDY    24  16  71 N12       30.43S WCI  13
6HR MIN TEMP:  23; 6HR MAX TEMP:  26;

WEST ATLANTA   CLOUDY    27  20  75 N7        30.39R WCI  19
6HR MIN TEMP:  27; 6HR MAX TEMP:  28;

GAINESVILLE    CLOUDY    34  25  69 E10       30.37R WCI  26
6HR MIN TEMP:  32; 6HR MAX TEMP:  35; 6HR PCP: TRACE;

CARTERSVILLE   CLOUDY    24  17  74 N8        30.42S WCI  15
6HR MIN TEMP:  24; 6HR MAX TEMP:  26;



CITY           SKY/WX    TMP DP  RH WIND       PRES   REMARKS
DALTON*        CLOUDY    25  21  86 N6G16     30.44S WCI  18
LAWRENCEVILLE* CLOUDY    34  25  69 CALM      30.36  FOG
MARIETTA       CLOUDY    26  22  84 NW5       30.37R WCI  21
KENNESAW*      CLOUDY    25  19  80 N5        30.40  WCI  19
$$

GAZ059>098-102>109-061300-
CENTRAL GEORGIA

CITY           SKY/WX    TMP DP  RH WIND       PRES   REMARKS
AUGUSTA-BUSH   CLOUDY    40  32  73 E8        30.38R WCI  34
6HR MIN TEMP:  40; 6HR MAX TEMP:  43;

AUGUSTA-DANIEL CLOUDY    40  34  79 NE6       30.37R
6HR MIN TEMP:  40; 6HR MAX TEMP:  44;

COLUMBUS       CLOUDY    31  25  78 N7        30.37R WCI  24
6HR MIN TEMP:  30; 6HR MAX TEMP:  34;

MACON          CLOUDY    34  33  96 N6        30.35S FOG     WCI  29
6HR MIN TEMP:  33; 6HR MAX TEMP:  37;

ROBINS AFB     CLOUDY    36  32  87 NW9       30.35R FOG     WCI  29


CITY           SKY/WX    TMP DP  RH WIND       PRES   REMARKS
LAGRANGE*      CLOUDY    32  27  80 NE7       30.38S WCI  26
SYLVANIA*      CLOUDY    40  35  83 NE9       30.35F WCI  34
MILLEDGEVILLE* CLOUDY    39  39 100 NE5       30.36R
$$

GAZ099>101-110>166-061300-
SOUTH GEORGIA

CITY           SKY/WX    TMP DP  RH WIND       PRES   REMARKS
SAVANNAH       CLOUDY    41  36  82 NE12      30.34R
6HR MIN TEMP:  41; 6HR MAX TEMP:  47; 6HR PCP: TRACE;

VALDOSTA       CLOUDY    44  39  82 NE8       30.28S
6HR MIN TEMP:  44; 6HR MAX TEMP:  49;

ALMA           CLOUDY    44  41  89 N5        30.30R
6HR MIN TEMP:  44; 6HR MAX TEMP:  47;

ST SIMONS      CLOUDY    46  42  86 NE18G26   30.31R
6HR MIN TEMP:  46; 6HR MAX TEMP:  58; 6HR PCP: TRACE;

FT STEWART     DRIZZLE   42  40  91 N8        30.32R
ALBANY         CLOUDY    38  31  76 N8        30.35R WCI  32
HUNTER AFB     CLOUDY    42  39  91 NE13      30.31R
MOODY AFB      CLOUDY    43  38  82 N10       30.28R
BRUNSWICK      CLOUDY    45  43  93 N9G21     30.32R


CITY           SKY/WX    TMP DP  RH WIND       PRES   REMARKS
BAINBRIDGE*    MOCLDY    37  32  81 N7        30.33R WCI  32
MOULTRIE*      CLOUDY    41  36  81 NE7       30.30S
VIDALIA*       CLOUDY    43  37  81 NE8       30.33R
WAYCROSS*      CLOUDY    48  46  93 NE6       30.29S
DOUGLAS*       CLOUDY    45  41  87 NE10      30.31S
$$



USA.gov is the U.S. government's official web portal to all federal, state and local government web resources and services.